[[{"header":{"parameterUnit":"m.s-1","parameterCategory":1,"la1":30.2991,"la2":30.254,"lo1":-89.0895,"lo2":-89.0444,"dy":0.0017,"dx":0.0017,"nx":28,"ny":28,"refTime":"2024-04-25T21:00:00:Z","depth":0,"parameterNumber":2,"parameterNumberName":"U-component_of_WINDS"},"data":[0,0,0,0,0,0,0,0,0,0,0,0,0,0,0,0,0,0,0,0,0,0,0,0,0,0,0,0,0,0,0,0,0,0,0,0,0,0,0,0,0,0,0,0,0,0,0,0,0,0,0,0,0,0,0,0,0,0,-5.8241,-5.8241,0,-5.829,-5.8291,-5.8292,-5.8235,-5.8233,-5.8231,-5.8229,-5.8275,-5.8278,-5.8281,0,0,0,0,0,0,0,0,0,0,0,0,0,-5.8094,-5.8097,-5.8241,-5.8241,-5.8242,-5.829,-5.8291,-5.8292,-5.8235,-5.8233,-5.823,-5.8228,-5.8274,-5.8278,-5.8281,0,0,0,0,0,0,0,0,0,0,0,0,0,-5.8152,-5.8098,-5.8241,-5.822,-5.8219,-5.829,-5.8291,-5.8292,-5.8236,-5.8233,-5.823,-5.8227,-5.8273,-5.8277,-5.8282,-5.8375,0,0,-5.8297,-5.8299,0,0,0,0,0,0,0,0,-5.8148,-5.8157,-5.8222,-5.8221,-5.822,-5.8253,-5.8256,-5.832,-5.8237,-5.8229,-5.8229,-5.8225,-5.827,-5.8275,-5.8291,-5.8377,-5.8379,-5.8297,-5.83,-5.8302,-5.8303,0,0,0,0,0,0,0,-5.8145,-5.8155,-5.826,-5.8223,-5.8222,-5.8207,-5.8212,-5.8268,-5.8267,-5.823,-5.8226,-5.8232,-5.8269,-5.8286,-5.8292,-5.838,-5.8297,-5.8301,-5.8304,-5.8306,-5.8544,-5.8548,0,0,0,0,0,0,-5.8143,-5.8152,-5.8259,-5.8262,-5.8176,-5.8212,-5.8217,-5.8246,-5.8266,-5.8266,-5.8235,-5.823,-5.828,-5.8286,-5.8293,-5.8402,-5.8302,-5.8307,-5.8309,-5.8541,-5.8545,-5.8549,0,0,0,0,0,0,-5.8141,-5.8154,-5.8257,-5.8206,-5.8218,-5.8218,-5.825,-5.8248,-5.8266,-5.827,-5.8269,-5.8254,-5.8278,-5.8286,-5.8355,-5.8403,-5.8309,-5.8313,-5.8537,-5.8542,-5.8547,-5.8621,0,0,0,0,0,0,-5.8137,-5.8153,-5.8189,-5.8207,-5.8221,-5.8319,-5.8253,-5.8252,-5.8275,-5.8268,-5.8287,-5.8287,-5.8276,-5.8348,-5.836,-5.8407,-5.8317,-5.8532,-5.8539,-5.8545,-5.8614,-5.8628,-5.864,0,0,0,0,0,-5.8132,-5.8207,-5.8191,-5.8204,-5.8266,-5.8322,-5.833,-5.8316,-5.8279,-5.8315,-5.8317,-5.8287,-5.8397,-5.8356,-5.8369,-5.8418,-5.8529,-5.8537,-5.8545,-5.8608,-5.8625,-5.864,0,0,0,0,0,0,-5.8192,-5.8209,-5.8191,-5.8275,-5.8298,-5.8312,-5.8356,-5.8335,-5.8367,-5.8359,-5.834,-5.8345,-5.8418,-5.8425,-5.838,-5.8509,-5.8457,-5.8467,-5.8501,-5.8517,-5.8529,-5.8524,-5.8321,0,0,0,0,0,-5.8216,-5.8262,-5.8273,-5.8346,-5.8359,-5.8356,-5.838,-5.8368,-5.839,-5.8399,-5.8406,-5.8428,-5.8467,-5.8493,-5.8529,-5.8617,-5.8619,-5.8657,-5.867,-5.868,-5.8688,-5.8734,-5.875,-5.8574,-5.8574,-5.8574,0,0,-5.8264,-5.8279,-5.8308,-5.8359,-5.8375,-5.8421,-5.8364,-5.8415,-5.8449,-5.8406,-5.8471,-5.8478,-5.8501,-5.8579,-5.8614,-5.8587,-5.8738,-5.869,-5.8699,-5.8701,-5.8743,-5.876,-5.8775,-5.8579,-5.8579,-5.8578,0,0,-5.8374,-5.8392,-5.8453,-5.8472,-5.8498,-5.8496,-5.8511,-5.853,-5.8533,-5.8599,-5.8568,-5.8607,-5.8675,-5.8692,-5.871,-5.883,-5.8802,-5.8843,-5.8908,-5.8952,-5.8966,-5.8978,-5.9018,-5.9033,-5.8852,-5.8852,-5.8852,0,-5.843,-5.85,-5.8488,-5.8541,-5.8564,-5.853,-5.8591,-5.8609,-5.8645,-5.8661,-5.8632,-5.8717,-5.873,-5.8811,-5.884,-5.8857,-5.8872,-5.8838,-5.8965,-5.8977,-5.8988,-5.9026,-5.9042,-5.8856,-5.8856,-5.8855,-5.8855,0,-5.8566,-5.8615,-5.8662,-5.8699,-5.8727,-5.8785,-5.878,-5.881,-5.8796,-5.8797,-5.8864,-5.888,-5.8918,-5.8937,-5.8924,-5.9016,-5.8999,-5.8969,-5.8914,-5.901,-5.9045,-5.906,-5.8863,-5.8861,-5.886,-5.8859,0,0,-5.8712,-5.8744,-5.8761,-5.8778,-5.8805,-5.8842,-5.8898,-5.8937,-5.8962,-5.8989,-5.9034,-5.9094,-5.9066,-5.9086,-5.9075,-5.9114,-5.9205,-5.9078,-5.9078,-5.9099,-5.9306,-5.9326,-5.9343,-5.9189,-5.9192,-5.9194,-5.9303,0,-5.8821,-5.8919,-5.8911,-5.9003,-5.9047,-5.9017,-5.9065,-5.9087,-5.909,-5.9127,-5.913,-5.9172,-5.9133,-5.9145,-5.9183,-5.9186,-5.9246,-5.9179,-5.9228,-5.923,-5.9219,-5.9362,-5.9384,-5.9486,-5.9317,-5.9319,-5.9321,0,-5.8961,-5.8994,-5.9091,-5.9112,-5.913,-5.9174,-5.9209,-5.9246,-5.9269,-5.9269,-5.9293,-5.9275,-5.933,-5.9279,-5.9353,-5.9307,-5.9327,-5.9333,-5.9336,-5.9337,-5.9278,-5.9364,-5.9518,-5.9532,-5.9343,-5.9341,-5.934,0,-5.9054,-5.9124,-5.919,-5.9206,-5.9232,-5.9264,-5.9276,-5.9297,-5.9321,-5.9352,-5.9367,-5.9404,-5.9423,-5.9452,-5.9444,-5.9408,-5.952,-5.9468,-5.9518,-5.9519,-5.954,-5.9538,-5.9696,-5.9559,-5.9559,-5.9559,-5.9558,0,-5.9174,-5.9234,-5.9232,-5.9273,-5.9339,-5.9329,-5.9394,-5.9403,-5.9422,-5.9462,-5.944,-5.9478,-5.9467,-5.9505,-5.95,-5.9561,-5.957,-5.957,-5.9567,-5.957,-5.957,-5.958,-5.9571,-5.9563,-5.9562,-5.9561,-5.956,0,-5.9288,-5.929,-5.936,-5.9381,-5.9388,-5.9435,-5.9452,-5.9489,-5.9492,-5.9544,-5.9555,-5.9559,-5.9602,-5.9599,-5.9647,-5.9644,-5.9718,-5.9709,-5.971,-5.9707,-5.9757,-5.9751,-5.9924,-5.9945,-5.9798,-5.9799,-5.9801,0,-5.9363,-5.9408,-5.9435,-5.9461,-5.9476,-5.9519,-5.9544,-5.9537,-5.9564,-5.9595,-5.9629,-5.9671,-5.9703,-5.9773,-5.9779,-5.9816,-5.9805,-5.9863,-5.981,-5.9811,-5.9802,-5.9798,-5.9801,-5.9872,-5.9874,-5.9875,-5.9876,0,-5.9495,-5.9494,-5.9532,-5.9571,-5.9602,-5.9632,-5.9659,-5.9681,-5.9677,-5.9708,-5.9753,-5.9779,-5.9829,-5.987,-5.9905,-5.9916,-5.9895,-5.9894,-5.9907,-5.9908,-5.9906,-5.9905,-5.9735,-5.9889,-5.9888,-5.9887,-5.9886,-5.9886,-5.9589,-5.9628,-5.9653,-5.9696,-5.9716,-5.9742,-5.9778,-5.9787,-5.9825,-5.9865,-5.9859,-5.9909,-5.9932,-5.9977,-5.9992,-6.003,-6.0009,-6.0029,-6.0033,-6.0037,-6.0041,-5.9904,-6.0037,-6.0037,-6.0036,-6.0036,-6.0036,0,-5.9717,-5.9732,-5.9773,-5.9812,-5.9846,-5.9826,-5.9856,-5.9884,-5.9929,-5.9953,-5.9986,-6.0037,-6.0077,-6.0088,-6.0126,-6.0154,-6.0145,-6.0164,-6.0159,-6.0162,-6.006,-6.0043,-6.017,-6.017,-6.017,-6.017,-6.017,-6.017,-5.9788,-5.9851,-5.9854,-5.9927,-5.9942,-5.9991,-6.0009,-6.0033,-6.0052,-6.011,-6.0144,-6.0152,-6.017,-6.0209,-6.0244,-6.0246,-6.026,-6.0282,-6.028,-6.0183,-6.0169,-6.0156,-6.014,-6.0286,-6.0286,-6.0378,-6.0379,-6.038]},{"header":{"parameterUnit":"m.s-1","parameterCategory":1,"la1":30.2991,"la2":30.254,"lo1":-89.0895,"lo2":-89.0444,"dy":0.0017,"dx":0.0017,"nx":28,"ny":28,"refTime":"2024-04-25T21:00:00:Z","depth":0,"parameterNumber":3,"parameterNumberName":"V-component_of_WINDS"},"data":[0,0,0,0,0,0,0,0,0,0,0,0,0,0,0,0,0,0,0,0,0,0,0,0,0,0,0,0,0,0,0,0,0,0,0,0,0,0,0,0,0,0,0,0,0,0,0,0,0,0,0,0,0,0,0,0,0,0,4.0756,4.0756,0,4.0763,4.0763,4.0763,4.073,4.0729,4.0728,4.0727,4.0734,4.0735,4.0736,0,0,0,0,0,0,0,0,0,0,0,0,0,4.0712,4.0713,4.0756,4.0756,4.0756,4.0763,4.0763,4.0763,4.073,4.0729,4.0727,4.0726,4.0733,4.0735,4.0736,0,0,0,0,0,0,0,0,0,0,0,0,0,4.0726,4.0713,4.0756,4.074,4.0739,4.0763,4.0763,4.0763,4.073,4.0729,4.0727,4.0726,4.0733,4.0734,4.0736,4.0776,0,0,4.0741,4.0742,0,0,0,0,0,0,0,0,4.0725,4.0728,4.0742,4.0741,4.074,4.0744,4.075,4.0768,4.073,4.0733,4.0727,4.0725,4.0738,4.0739,4.0744,4.0776,4.0777,4.0741,4.0742,4.0743,4.0743,0,0,0,0,0,0,0,4.0724,4.0727,4.0759,4.0742,4.0741,4.0733,4.0733,4.0754,4.0744,4.0733,4.073,4.0732,4.0737,4.0742,4.0744,4.0777,4.0741,4.0743,4.0744,4.0744,4.0843,4.0845,0,0,0,0,0,0,4.0726,4.0727,4.0758,4.0759,4.0729,4.0735,4.0735,4.0744,4.0744,4.0742,4.0733,4.073,4.074,4.0742,4.0744,4.0791,4.0743,4.0745,4.0746,4.0842,4.0844,4.0845,0,0,0,0,0,0,4.0725,4.0729,4.0758,4.0742,4.0745,4.0737,4.0747,4.0745,4.075,4.0744,4.0742,4.074,4.0739,4.0742,4.0769,4.0791,4.0745,4.0747,4.084,4.0842,4.0845,4.0886,0,0,0,0,0,0,4.0724,4.0729,4.0744,4.0743,4.0746,4.0783,4.0749,4.0746,4.0753,4.075,4.075,4.0749,4.0738,4.0766,4.077,4.0793,4.0748,4.0838,4.0841,4.0844,4.0883,4.089,4.0896,0,0,0,0,0,4.0722,4.0754,4.0744,4.0748,4.0765,4.0784,4.0786,4.0774,4.0755,4.077,4.0766,4.0749,4.0788,4.0769,4.0774,4.0797,4.0836,4.084,4.0844,4.088,4.0888,4.0896,0,0,0,0,0,0,4.0757,4.0754,4.0743,4.0776,4.0781,4.0778,4.0796,4.0783,4.0792,4.0789,4.0773,4.0773,4.0803,4.0802,4.0782,4.0836,4.0809,4.0814,4.0835,4.0843,4.085,4.0849,4.0749,0,0,0,0,0,4.0769,4.0785,4.0781,4.081,4.0813,4.0805,4.0813,4.0803,4.0807,4.0809,4.0807,4.0811,4.0825,4.0834,4.0846,4.0883,4.0883,4.0901,4.0907,4.0913,4.0917,4.0937,4.0945,4.0858,4.0858,4.0857,0,0,4.0793,4.0793,4.0804,4.0817,4.082,4.0837,4.0807,4.0826,4.0838,4.0811,4.0837,4.0836,4.084,4.0872,4.0887,4.0873,4.0941,4.0917,4.0922,4.0923,4.0942,4.095,4.0958,4.086,4.086,4.0859,0,0,4.0845,4.0847,4.0872,4.0876,4.088,4.0875,4.0881,4.0881,4.088,4.0905,4.0886,4.0901,4.0924,4.0928,4.0933,4.0989,4.0974,4.0994,4.1028,4.1048,4.1055,4.1061,4.1081,4.1089,4.0998,4.0998,4.0998,0,4.0874,4.0899,4.0887,4.0908,4.0915,4.0892,4.0918,4.0922,4.093,4.0935,4.092,4.095,4.0951,4.0985,4.0999,4.1003,4.101,4.0993,4.1055,4.1061,4.1066,4.1086,4.1093,4.1001,4.1,4.1,4.1,0,4.0935,4.0953,4.0973,4.0983,4.0992,4.1015,4.1006,4.1017,4.1007,4.1003,4.103,4.1031,4.1043,4.1051,4.104,4.1083,4.1075,4.1057,4.103,4.1077,4.1095,4.1103,4.1004,4.1003,4.1002,4.1002,0,0,4.1009,4.1012,4.102,4.1025,4.1029,4.1042,4.1065,4.1078,4.1088,4.1095,4.1114,4.1135,4.1119,4.1125,4.1116,4.1133,4.1179,4.1114,4.1114,4.1126,4.1227,4.124,4.1249,4.1169,4.117,4.1171,4.1226,0,4.1061,4.11,4.109,4.1129,4.1146,4.1126,4.1146,4.1151,4.1148,4.1162,4.1159,4.1174,4.1152,4.1156,4.1173,4.117,4.1199,4.1166,4.1186,4.1187,4.1186,4.1258,4.1272,4.1324,4.1233,4.1235,4.1235,0,4.1126,4.1137,4.1178,4.1181,4.1188,4.1206,4.1217,4.1231,4.1237,4.1233,4.1241,4.1228,4.1251,4.1224,4.1255,4.1233,4.1241,4.1241,4.1243,4.1244,4.1214,4.1262,4.134,4.1348,4.1246,4.1245,4.1245,0,4.1177,4.1201,4.1229,4.1234,4.1238,4.1251,4.1253,4.1257,4.1266,4.1276,4.1282,4.1295,4.1302,4.1312,4.1303,4.1284,4.1336,4.1308,4.1334,4.1335,4.1346,4.1345,4.1427,4.1351,4.1351,4.1351,4.135,0,4.1236,4.1262,4.1252,4.127,4.1299,4.1287,4.1316,4.1316,4.132,4.1337,4.132,4.1336,4.1324,4.1339,4.1332,4.136,4.1363,4.1361,4.1359,4.1363,4.1363,4.1368,4.1364,4.1353,4.1352,4.1352,4.1351,0,4.1297,4.1292,4.1321,4.1323,4.1324,4.1346,4.1347,4.1363,4.136,4.1382,4.1386,4.1381,4.1398,4.139,4.1408,4.1404,4.1439,4.1432,4.1438,4.1436,4.1463,4.1461,4.1551,4.1562,4.1478,4.1479,4.148,0,4.1336,4.1356,4.136,4.1371,4.1374,4.1391,4.1401,4.1391,4.1401,4.141,4.1425,4.1441,4.1453,4.1482,4.1479,4.1493,4.1487,4.1517,4.1488,4.1492,4.1488,4.1487,4.1489,4.1523,4.1524,4.1525,4.1525,0,4.1405,4.1401,4.1416,4.143,4.1442,4.1452,4.1461,4.147,4.146,4.1473,4.1491,4.1501,4.152,4.1536,4.1548,4.155,4.1537,4.1534,4.1541,4.1545,4.1548,4.1548,4.1454,4.1532,4.1532,4.1531,4.1531,4.153,4.1456,4.1473,4.148,4.1497,4.1502,4.1511,4.1527,4.1526,4.1541,4.1556,4.1549,4.157,4.1576,4.1592,4.1596,4.1612,4.16,4.161,4.1613,4.1615,4.1619,4.1546,4.1614,4.1614,4.1614,4.1614,4.1614,0,4.1525,4.1528,4.1544,4.1558,4.1571,4.1558,4.1567,4.1579,4.1598,4.1605,4.1618,4.1639,4.1655,4.1654,4.1669,4.1683,4.1677,4.1687,4.1686,4.1687,4.1629,4.1622,4.1691,4.1691,4.1691,4.1691,4.1691,4.1691,4.1562,4.1591,4.1589,4.162,4.1623,4.1645,4.1651,4.166,4.1665,4.169,4.1703,4.1703,4.1707,4.1723,4.1737,4.1736,4.1743,4.1755,4.1753,4.1698,4.1691,4.1683,4.1676,4.1757,4.1757,4.1809,4.181,4.181]}]]